GFSFLT1_850_temp_000.txt.gz
Temp
32 30 29 27 26 25 24 24 23 22 22 23 22 22 21 21 19 19 19 19 20 19 19 18 17 17 17 16 15 14 15 15 14
33 31 30 29 27 26 25 24 23 23 23 23 23 21 22 22 21 20 20 19 18 18 18 18 17 18 17 15 15 14 14 15 14
33 31 30 30 28 27 26 25 24 23 24 24 23 22 22 22 21 21 19 19 18 19 18 18 16 18 17 16 15 14 14 15 14
34 32 30 30 29 28 26 26 25 24 23 23 24 23 23 23 21 20 20 19 20 20 20 20 18 18 18 16 18 15 14 14 15
36 33 31 30 30 29 27 26 26 25 24 23 23 24 24 23 20 20 19 19 21 22 20 21 20 18 17 16 17 15 14 14 15
34 31 30 30 29 28 28 27 26 26 25 25 24 23 22 22 21 20 19 21 23 22 21 21 19 21 19 17 16 15 14 14 14
32 30 29 28 28 28 27 27 26 25 26 25 25 24 22 21 20 19 18 21 23 22 21 20 21 21 19 18 16 15 14 14 14
33 30 28 27 28 27 26 25 25 24 25 24 25 24 23 21 20 18 19 22 22 21 21 21 21 21 19 17 15 16 15 14 14
33 30 29 28 27 26 25 25 24 24 23 23 23 22 22 21 19 18 21 22 21 20 21 21 20 20 19 16 16 16 15 15 15
32 31 29 28 27 26 25 24 23 23 22 22 22 21 21 19 19 20 20 20 19 19 19 19 19 19 18 17 16 15 16 16 15
33 31 30 28 27 26 24 24 24 23 23 24 21 20 19 18 19 20 20 19 18 18 18 18 17 16 17 15 14 16 15 15 15
29 30 29 27 26 25 24 24 24 26 24 23 21 19 19 20 21 19 18 18 18 17 16 14 14 14 14 13 13 15 15 15 14
27 27 26 26 25 24 24 25 26 25 22 23 23 24 23 23 21 20 19 19 18 16 15 14 14 14 14 13 14 16 16 16 15
26 25 24 24 24 24 25 25 23 23 22 23 25 24 24 22 21 19 18 17 18 15 14 14 14 14 14 13 15 16 16 15 15
23 23 24 24 24 24 23 23 24 25 24 24 24 22 22 20 19 18 16 17 16 15 14 14 14 14 14 13 14 15 15 15 14
24 25 25 24 23 22 22 23 22 22 24 24 23 22 20 19 18 16 16 16 15 14 15 14 14 14 14 15 15 14 15 15 14
22 22 23 23 22 22 24 24 24 24 23 23 21 21 20 19 16 16 16 15 15 15 15 14 14 15 14 15 14 13 15 15 14
21 20 21 21 21 20 22 22 22 22 22 21 20 19 18 17 16 15 15 15 15 15 15 15 15 15 14 14 14 14 13 13 12
18 19 19 19 19 19 19 20 21 19 19 18 17 17 16 16 16 15 15 14 15 15 15 15 15 15 15 15 14 15 14 14 14
17 19 19 18 18 17 17 17 17 16 16 16 16 16 16 16 16 16 16 15 15 14 14 14 15 15 15 15 15 14 14 14 13

GFSFLT1_850_temp_003.txt.gz
Temp
36 33 32 31 29 28 26 25 24 24 23 21 21 21 20 20 20 20 20 20 21 20 20 20 19 17 17 16 16 15 15 15 15
36 34 33 31 30 28 27 26 25 24 23 22 21 21 21 20 20 20 21 21 20 20 20 20 18 17 17 17 16 16 15 15 15
36 35 33 32 30 29 27 26 25 24 23 22 22 21 21 21 20 20 20 20 20 20 20 19 19 17 19 19 17 16 17 15 15
36 35 34 32 31 30 28 27 26 25 24 23 22 22 22 21 20 20 20 20 20 19 19 18 19 22 21 19 17 15 15 15 16
36 35 34 33 32 31 29 28 27 26 25 24 23 23 22 22 21 20 20 19 19 20 21 22 23 23 21 17 18 16 17 15 16
36 35 35 33 33 32 30 29 28 27 26 26 25 23 23 22 21 21 20 20 20 22 22 23 23 22 20 20 20 18 18 17 15
35 35 33 33 33 32 31 30 28 28 27 27 26 25 24 23 22 21 20 20 22 22 24 24 23 21 21 20 19 19 16 17 15
35 35 34 32 32 32 31 30 29 28 28 27 27 25 24 23 22 21 20 20 21 22 24 25 24 22 20 20 17 17 16 15 15
35 35 35 32 31 31 30 29 29 28 27 27 27 25 25 24 22 21 20 20 20 20 21 22 21 21 21 20 17 17 17 17 15
34 34 35 34 31 30 30 28 28 27 26 26 26 25 24 24 22 22 21 20 20 20 20 19 18 21 20 17 16 16 18 17 15
34 34 34 34 32 30 29 28 27 27 25 25 25 24 23 23 22 21 20 20 21 19 19 19 18 18 17 15 15 15 17 17 15
34 34 34 34 31 30 28 28 27 26 25 24 23 22 22 21 21 21 21 21 20 19 18 17 17 16 16 15 14 14 15 15 15
32 32 33 33 30 29 27 27 26 25 24 23 22 22 21 20 21 22 22 21 20 17 16 17 15 15 15 15 15 14 14 14 14
29 30 31 29 29 27 26 26 25 24 23 23 22 21 20 19 20 20 20 18 17 16 16 16 15 15 15 15 15 14 14 15 15
28 29 28 27 26 25 25 25 24 23 23 23 22 21 19 19 19 18 17 17 17 16 16 15 15 15 15 15 14 14 14 15 15
25 25 26 25 24 24 24 23 23 23 22 21 20 19 19 19 17 17 17 17 17 16 15 15 15 16 15 15 15 15 14 15 15
26 25 25 24 24 23 23 23 22 21 20 19 19 18 19 18 18 17 17 16 16 15 15 15 16 16 15 15 15 14 14 15 15
23 23 23 23 22 21 20 20 19 19 19 18 17 17 18 17 17 16 16 16 15 15 15 16 17 16 16 15 15 15 14 15 15
21 21 21 21 21 20 19 19 18 18 18 18 18 18 17 17 16 16 16 16 15 15 15 16 16 16 16 16 16 15 15 14 14
18 20 20 20 20 20 19 19 18 17 18 17 17 16 16 16 17 17 16 16 16 15 15 16 16 16 15 15 15 15 15 14 14

GFSFLT1_850_temp_006.txt.gz
Temp
35 34 33 32 30 29 27 26 25 24 23 22 21 21 21 21 21 22 22 21 22 21 21 20 20 20 20 19 18 18 18 18 17
37 35 34 33 31 29 28 26 26 25 23 22 22 21 21 21 21 21 22 21 21 21 21 21 20 20 20 19 18 17 17 17 16
37 36 34 33 32 30 29 27 26 25 24 23 22 21 21 21 21 22 22 21 21 21 20 21 20 20 20 19 18 17 17 17 16
37 37 34 34 33 31 29 27 26 25 24 23 22 21 21 21 21 23 22 21 21 21 21 20 20 20 19 19 18 17 17 17 17
36 36 36 35 33 31 30 28 27 25 24 23 22 21 21 22 23 22 22 22 21 21 21 20 20 20 20 19 18 18 18 18 17
36 36 35 35 34 32 30 29 27 26 25 24 23 22 22 22 22 22 23 24 22 21 21 21 22 21 20 19 18 19 19 19 18
36 36 35 34 34 33 31 30 28 27 26 25 24 22 22 22 22 23 23 24 24 23 21 21 21 21 20 20 19 19 18 17 18
35 35 34 34 34 33 32 31 28 28 27 26 25 24 23 22 22 22 22 22 24 22 21 20 20 19 19 18 19 19 17 16 17
35 35 35 33 33 33 33 31 30 28 27 27 26 26 24 23 23 22 22 22 21 20 20 19 19 19 18 18 19 18 16 16 16
35 34 35 34 33 32 32 32 31 28 28 27 27 27 25 25 24 23 22 22 21 20 20 19 18 18 19 18 16 16 16 16 16
34 34 34 34 34 32 31 31 30 28 27 27 27 27 26 25 25 23 23 22 21 20 19 19 18 17 16 16 16 16 17 16 16
34 34 34 34 34 34 32 31 30 29 28 27 27 27 26 25 24 23 23 22 21 20 19 19 18 17 16 15 15 16 15 16 16
34 34 34 34 34 34 32 30 29 29 28 27 27 27 26 24 24 23 23 22 21 20 19 17 17 17 16 15 15 15 16 15 14
31 33 34 33 32 31 31 30 28 28 27 25 25 25 23 23 22 22 23 22 20 18 17 17 17 16 16 16 15 15 15 15 14
30 29 30 31 30 30 29 28 28 26 25 24 24 23 21 21 21 21 20 19 17 17 16 16 16 16 16 16 15 15 15 15 15
28 29 29 28 27 26 26 26 26 24 23 22 22 21 21 20 21 21 18 18 17 16 16 16 16 16 16 16 16 15 15 15 15
26 26 26 26 25 24 24 24 23 22 22 22 21 20 21 21 19 18 18 17 17 16 16 16 17 16 16 15 15 16 15 15 15
24 24 24 23 23 23 22 22 21 21 21 20 21 21 20 18 17 17 17 17 16 16 16 16 16 16 16 16 15 16 16 15 15
22 21 21 21 21 20 21 21 20 20 20 20 20 18 17 17 17 17 16 16 16 15 16 16 16 16 16 16 16 16 15 15 15
20 21 21 20 20 19 19 19 19 19 19 19 20 19 17 18 17 16 16 16 16 16 15 16 16 16 16 16 16 16 15 15 15

GFSFLT1_850_temp_009.txt.gz
Temp
33 33 31 30 30 28 26 26 25 25 24 24 23 22 21 20 20 21 22 21 21 21 21 21 20 20 20 20 19 19 20 19 19
33 33 32 30 30 29 27 26 26 25 24 24 23 22 21 21 20 21 22 22 21 20 21 21 20 20 20 20 19 19 20 19 19
32 33 32 31 30 30 28 27 27 26 25 24 24 23 22 22 22 21 21 22 21 21 20 21 21 20 20 20 20 19 20 19 18
31 33 33 32 31 30 29 27 27 26 25 24 23 23 23 22 22 22 21 22 22 21 21 21 21 21 20 20 20 20 20 19 18
35 35 32 31 32 29 28 27 26 26 25 25 24 24 23 23 23 22 21 22 22 22 21 21 21 20 20 20 20 20 20 20 18
34 35 33 32 31 29 28 28 27 26 25 25 25 24 23 23 23 23 22 22 22 22 21 21 21 20 20 20 20 20 20 20 18
35 35 34 33 31 31 29 29 28 26 25 25 25 24 24 23 23 24 23 23 23 22 22 21 21 21 20 20 20 20 19 19 18
35 35 34 33 32 31 31 29 28 26 25 25 26 24 24 24 24 24 23 23 23 23 21 21 20 20 20 20 19 19 19 19 18
35 34 34 34 33 33 32 30 29 27 26 25 26 25 24 24 24 23 23 23 23 22 22 21 20 20 19 19 19 18 18 18 17
34 34 34 34 34 33 33 32 31 28 27 26 26 26 25 25 24 23 23 22 22 21 21 20 19 19 19 19 19 18 17 17 17
33 32 33 33 34 34 33 32 32 31 28 26 26 26 26 25 25 24 23 22 22 21 20 20 20 19 19 18 18 17 16 16 16
33 33 33 33 33 34 34 32 32 31 28 27 26 26 27 26 26 25 24 23 22 21 20 20 19 19 19 18 17 16 15 16 16
32 33 33 33 33 34 32 33 32 31 30 27 27 27 27 27 26 25 23 22 22 21 21 21 21 19 18 17 16 16 16 16 16
30 31 32 33 33 33 33 32 31 31 30 28 28 27 25 26 25 24 23 22 23 23 22 22 19 18 17 17 17 17 15 15 15
29 29 31 31 31 33 33 33 31 30 29 28 25 26 25 25 25 23 23 23 24 23 22 20 18 18 17 16 16 15 15 15 15
28 28 29 30 30 30 31 32 30 29 28 26 25 25 25 23 23 22 22 24 23 20 19 16 17 17 16 16 16 16 15 15 15
26 26 27 28 28 27 27 27 28 28 26 25 25 24 23 21 21 21 21 20 20 19 17 16 16 16 16 16 16 16 16 16 15
23 23 24 25 25 25 24 25 25 24 24 23 23 23 23 23 21 20 19 18 17 17 16 16 17 17 16 16 17 17 16 16 16
19 20 17 23 22 22 22 22 22 22 22 22 23 23 21 21 19 19 18 18 16 16 16 16 16 16 17 17 17 16 16 16 16
19 19 17 18 21 21 21 21 21 21 22 21 22 21 20 19 18 18 18 17 17 17 16 16 16 16 16 16 16 16 16 15 15

GFSFLT1_850_temp_015.txt.gz
Temp
27 26 25 25 26 25 25 24 24 25 25 24 24 23 23 23 22 22 21 21 20 20 20 20 20 20 19 20 19 19 19 19 19
28 27 26 26 26 26 25 24 25 25 25 25 24 24 23 23 22 22 21 21 21 20 20 20 20 20 20 20 19 19 19 19 20
28 27 27 27 26 26 26 26 25 25 26 26 26 25 24 23 23 22 22 21 21 21 20 20 20 20 20 20 20 19 19 19 19
29 28 28 28 29 27 27 26 24 25 25 26 25 25 25 24 23 23 22 21 21 22 21 20 20 21 20 20 20 20 19 19 19
30 32 30 28 29 28 26 26 25 24 26 26 26 25 25 25 24 24 22 22 22 22 22 21 20 21 20 20 20 20 20 20 19
32 32 29 28 28 27 27 27 27 26 25 27 27 26 25 25 25 24 23 22 22 22 22 21 20 20 20 20 20 20 20 20 19
30 31 30 29 29 29 28 27 27 27 26 26 26 26 25 25 25 25 24 23 22 22 22 22 21 20 20 20 20 20 20 20 19
31 28 29 29 29 29 29 29 28 27 25 25 26 26 25 26 25 25 25 24 23 22 22 22 22 21 20 20 20 20 20 19 20
29 30 29 29 30 31 31 31 32 30 28 26 25 25 27 26 26 26 25 24 23 23 22 22 22 22 21 21 20 20 20 20 19
31 32 33 33 31 30 33 33 30 31 31 28 26 27 26 25 25 26 25 24 24 23 23 22 23 22 21 21 21 21 20 20 19
32 33 33 33 33 33 33 33 32 31 30 28 28 28 26 25 26 27 26 24 24 23 23 23 23 22 22 21 21 21 20 20 20
31 32 33 33 32 33 32 33 32 28 29 28 27 27 27 26 26 27 26 25 24 23 22 23 23 22 22 22 22 21 20 19 19
31 32 32 33 33 33 32 29 31 30 29 29 29 29 29 29 27 27 26 26 25 23 22 23 22 22 22 22 21 20 19 20 18
28 29 29 29 30 32 32 31 29 27 26 28 32 31 31 28 26 26 27 26 24 24 22 21 22 22 22 21 20 20 18 19 18
26 27 27 27 27 28 28 26 25 27 29 32 31 30 26 25 26 24 23 23 23 22 21 20 22 21 21 20 20 19 19 17 17
24 25 24 25 26 25 26 26 28 26 28 29 29 29 28 27 24 23 23 22 22 20 19 21 20 21 20 21 19 18 17 17 17
24 25 27 28 28 28 26 23 23 24 26 24 24 25 28 27 25 24 29 22 21 20 19 21 21 22 22 21 21 17 16 17 16
21 22 23 24 25 26 27 26 24 22 21 22 23 23 23 22 22 22 21 19 19 19 19 23 23 22 21 20 20 18 18 17 16
20 21 22 23 23 23 23 24 24 24 24 21 19 20 22 21 21 20 19 19 19 19 19 22 19 18 16 18 17 17 17 17 16
19 20 20 21 20 20 21 22 22 23 23 23 20 18 19 19 19 18 18 18 18 17 16 17 15 15 18 17 17 16 17 15 15

GFSFLT1_850_temp_021.txt.gz
Temp
27 25 24 24 24 23 25 25 24 24 24 23 23 23 23 22 22 22 22 22 21 21 21 21 21 20 20 20 19 19 19 19 19
28 27 25 24 24 24 25 26 26 25 25 24 24 24 23 23 23 22 22 22 22 21 21 21 21 21 20 20 20 20 19 19 19
28 28 27 26 24 23 25 26 27 26 26 26 26 25 24 24 24 23 23 22 22 22 22 21 20 21 20 20 20 20 19 19 19
29 28 28 27 26 24 24 23 23 25 26 26 26 26 26 25 25 24 24 23 23 23 22 21 20 20 21 20 20 20 20 19 19
28 27 28 30 27 25 24 24 24 24 25 25 26 26 26 26 26 25 25 24 24 24 23 22 21 20 20 20 20 20 20 20 19
28 27 26 28 26 26 27 27 25 24 24 26 27 25 25 25 25 25 25 25 25 24 24 23 22 21 21 20 20 20 20 20 20
29 30 30 28 28 29 29 28 27 26 24 24 25 24 25 25 26 26 26 26 25 25 24 23 23 22 21 21 21 21 21 21 20
29 29 29 30 30 31 31 29 27 26 26 24 24 24 25 27 27 26 25 25 26 25 24 24 24 23 22 22 21 21 21 21 21
29 29 30 31 31 30 31 31 29 27 26 26 25 25 27 27 25 26 26 24 24 25 24 24 24 23 22 22 22 22 22 21 21
28 30 31 31 31 31 31 32 32 29 27 25 25 26 26 24 24 25 25 25 24 25 25 25 24 24 23 22 23 23 23 22 21
28 30 31 31 32 31 32 31 30 29 27 27 26 25 24 25 25 25 24 23 25 25 25 25 25 25 24 23 23 23 23 22 21
28 28 29 30 31 30 31 31 30 28 28 28 27 27 28 28 27 26 24 23 25 24 24 24 25 25 24 24 24 24 24 22 21
29 29 29 29 30 31 31 31 30 28 27 27 28 29 28 24 23 23 24 24 22 22 24 25 25 25 25 24 24 24 24 23 21
28 29 28 29 30 30 31 31 30 29 27 28 28 25 25 25 25 24 24 23 23 22 21 21 23 25 25 25 25 24 24 23 21
26 27 26 28 28 30 30 30 29 27 25 24 25 24 25 25 24 24 22 22 22 22 21 21 20 21 22 24 25 25 24 23 21
22 23 24 25 25 27 28 28 28 27 25 24 24 24 25 24 24 23 22 22 22 20 19 20 19 18 19 19 22 22 23 22 22
20 21 22 22 22 23 23 23 24 24 24 24 24 23 23 23 23 22 22 21 20 19 19 18 18 18 19 25 22 25 22 21 19
16 19 20 21 22 22 22 23 23 23 23 24 24 24 24 24 23 22 22 22 21 21 21 21 20 19 19 20 23 24 18 17 17
15 17 18 19 19 21 21 22 22 22 22 23 23 24 24 24 23 22 21 20 21 20 20 20 21 19 19 19 21 19 18 18 17
15 16 17 18 18 19 19 20 20 21 21 21 22 22 22 22 21 18 18 18 18 18 19 18 18 18 18 18 18 18 18 16 16

GFSFLT1_850_temp_024.txt.gz
Temp
32 29 28 28 27 26 24 24 23 22 21 22 22 22 22 22 22 20 19 19 20 20 21 21 20 19 20 20 19 20 19 18 18
33 31 29 28 28 27 25 24 23 22 23 25 24 24 23 23 23 22 20 20 20 20 20 21 19 19 20 19 20 20 19 19 19
33 32 30 29 28 28 27 25 24 22 23 26 26 25 24 24 23 23 23 22 22 21 20 21 20 19 20 19 20 20 20 19 19
34 33 32 30 29 28 28 27 25 24 22 22 25 26 26 25 24 24 24 23 23 23 22 21 22 21 21 20 20 21 20 20 19
33 33 33 32 31 30 28 27 26 25 24 23 24 27 27 26 25 25 24 24 24 24 23 23 22 22 21 21 20 20 21 21 19
32 32 30 30 31 30 29 28 26 26 25 24 23 22 23 24 25 26 25 25 25 24 24 24 23 22 22 21 21 20 21 21 21
31 30 30 30 30 30 29 28 27 26 26 25 24 24 22 22 26 27 27 26 26 25 25 24 24 23 23 22 21 20 21 21 21
30 30 30 30 29 29 28 28 27 26 25 25 25 24 23 22 26 26 26 26 26 26 25 25 25 24 23 23 22 20 21 22 22
29 30 30 30 30 28 28 28 28 26 25 25 24 24 23 22 21 23 25 24 24 25 25 25 25 25 24 23 22 21 22 23 22
29 29 29 30 30 30 29 29 29 29 26 24 24 24 22 22 22 23 23 22 22 24 24 22 24 24 24 24 24 23 23 24 23
29 30 30 30 30 31 31 29 30 28 26 27 25 23 24 22 23 22 20 21 22 23 22 22 24 24 24 24 24 24 23 23 23
29 29 29 29 30 30 29 29 29 28 26 25 23 25 27 27 24 22 21 22 24 23 22 21 22 22 24 25 25 25 24 23 22
30 29 29 29 29 28 28 31 29 27 26 25 27 26 25 25 26 24 25 26 24 22 22 23 20 19 23 25 25 25 25 24 22
25 26 27 27 26 27 29 29 30 27 26 28 26 23 23 23 24 25 25 24 23 22 21 20 20 20 20 21 25 25 25 25 24
23 25 26 25 24 25 24 27 27 28 29 26 23 22 22 22 23 22 20 21 21 20 19 19 19 19 20 20 21 24 25 24 24
23 23 23 24 24 23 22 24 23 24 25 23 22 22 22 21 21 20 21 20 20 19 19 20 20 20 20 20 21 21 23 25 25
21 20 20 21 21 21 20 20 21 21 23 23 23 22 22 21 20 20 20 20 20 20 21 20 20 21 21 21 21 20 20 22 19
19 18 18 19 19 19 18 18 19 20 22 22 20 20 21 21 21 21 20 20 21 21 21 22 21 21 22 20 20 20 18 20 19
15 16 16 17 16 16 17 17 19 21 22 22 23 22 22 22 22 23 22 22 21 21 21 21 21 21 21 21 20 19 20 20 18
15 15 15 16 17 16 16 18 19 19 18 21 21 19 20 19 20 21 21 21 21 22 21 19 19 19 19 19 19 19 19 20 18

GFSFLT1_850_temp_027.txt.gz
Temp
34 33 32 31 29 28 27 25 24 23 22 20 20 20 20 22 21 20 20 21 22 21 22 22 22 21 20 19 19 19 19 19 18
35 34 33 31 30 29 27 26 25 23 23 22 22 22 22 22 23 22 20 21 21 21 21 23 22 21 20 19 19 19 19 19 19
35 35 33 32 31 29 28 27 25 24 23 22 24 23 24 24 24 23 22 21 21 21 21 21 22 21 20 19 19 19 19 19 19
35 35 34 32 31 30 29 28 27 25 24 22 22 24 24 25 25 23 23 22 21 22 21 21 22 21 21 20 20 19 19 19 20
35 35 34 33 32 31 30 29 28 27 25 24 23 23 24 25 25 25 24 24 23 22 23 22 21 22 20 21 21 20 19 20 20
35 35 34 34 33 32 31 31 29 28 27 26 25 23 22 22 24 24 25 25 25 24 24 24 23 21 21 21 21 21 21 21 21
34 34 33 33 34 34 32 31 30 29 28 27 26 25 23 23 22 25 24 23 25 25 25 25 24 23 22 22 22 22 22 22 22
32 32 32 32 32 32 32 31 30 29 28 28 28 26 25 24 22 22 21 22 23 24 25 25 25 25 23 23 22 21 21 21 21
31 31 31 32 31 31 30 30 30 29 27 27 27 27 26 25 23 22 21 21 21 22 25 26 26 25 25 24 24 22 21 21 21
31 31 31 31 31 32 31 30 29 29 28 27 27 27 26 25 24 23 22 21 21 21 23 22 24 25 25 25 25 24 24 22 21
30 30 31 31 31 32 32 32 32 30 29 27 26 26 25 25 24 23 22 22 23 21 21 22 21 22 23 24 25 25 25 24 22
29 30 30 31 31 32 32 31 31 31 30 28 27 27 25 24 24 23 22 23 23 21 21 21 22 21 21 22 25 25 25 24 23
28 29 30 30 31 31 31 30 30 30 30 29 27 27 26 24 23 22 22 22 22 22 21 21 21 21 22 23 25 24 24 25 22
24 24 25 27 27 28 28 28 29 28 29 29 28 25 24 23 23 22 21 22 22 22 21 21 20 21 20 20 21 23 25 24 22
23 24 25 26 27 27 26 26 27 26 27 28 27 26 24 23 22 22 22 21 21 21 21 21 21 20 20 21 21 20 21 23 22
23 24 25 25 26 27 26 24 24 25 25 25 25 24 24 23 22 22 22 22 21 21 20 21 21 21 21 21 21 21 21 21 21
23 24 23 23 24 24 23 22 23 23 22 23 23 23 23 22 22 21 21 21 21 21 22 22 21 22 22 22 22 22 22 21 20
21 21 21 21 22 21 20 19 19 19 19 20 21 21 22 21 22 21 21 21 22 23 22 23 23 23 23 23 24 24 23 23 22
18 17 17 18 19 19 18 18 17 18 18 19 20 21 22 23 24 23 22 23 22 22 22 23 22 22 22 22 23 23 23 22 22
15 16 16 17 18 17 17 16 16 17 17 18 18 20 22 22 22 24 24 24 24 24 23 22 22 21 21 21 21 21 21 20 20

GFSFLT1_850_temp_030.txt.gz
Temp
35 34 33 31 29 27 26 26 24 23 22 22 22 21 21 21 20 20 21 21 22 22 21 22 21 21 21 21 21 20 19 20 19
35 35 34 32 30 28 27 26 25 24 22 22 22 22 21 22 21 20 22 21 21 22 22 22 22 22 22 21 20 21 20 20 20
36 35 34 32 30 29 27 26 25 24 23 23 24 23 23 23 24 22 22 22 21 22 22 22 23 22 22 21 21 20 20 20 20
36 35 34 33 31 30 28 27 26 25 23 23 22 23 25 24 23 23 23 22 22 22 22 21 22 21 21 22 21 21 20 20 20
35 35 34 34 32 31 29 28 26 25 24 23 23 23 23 23 23 24 25 24 23 23 22 22 21 22 21 21 21 21 21 21 20
35 35 35 34 33 32 30 29 28 26 25 24 23 21 21 21 22 23 24 24 25 24 23 22 23 22 22 21 21 22 22 21 21
35 35 35 34 33 32 31 30 29 28 26 25 24 23 22 21 21 22 22 23 24 24 24 24 23 23 22 22 22 22 22 22 22
35 34 34 34 34 33 32 31 30 29 28 27 26 25 24 24 23 22 22 21 22 22 23 24 25 24 24 23 22 23 23 22 22
32 32 32 32 32 32 32 31 31 30 29 28 27 27 26 25 24 23 22 21 21 22 23 23 23 24 24 24 24 24 24 24 23
31 31 31 31 32 31 31 31 31 30 30 29 28 28 27 26 25 24 24 23 22 22 22 22 23 22 23 24 24 25 25 25 24
31 31 31 31 31 31 31 31 31 30 29 29 29 28 28 27 26 25 24 24 23 22 22 22 22 22 23 22 24 25 25 25 24
30 30 30 30 31 31 32 32 31 31 31 29 28 28 27 27 27 26 25 24 23 23 22 21 22 22 21 22 24 23 23 22 22
26 26 26 27 28 29 31 31 32 31 30 29 29 29 29 27 27 26 25 24 23 23 22 21 21 21 22 22 22 21 21 20 20
24 24 25 26 26 27 28 29 30 30 30 30 29 29 28 28 27 26 25 24 23 22 21 21 21 21 21 21 22 21 20 20 20
22 24 25 26 26 27 27 27 28 29 28 29 29 29 28 27 26 25 24 23 22 21 21 21 21 21 21 21 21 21 21 20 20
22 24 25 24 25 26 27 26 26 26 26 26 27 27 27 26 25 24 23 22 22 21 21 21 21 21 21 21 21 21 21 21 21
20 22 22 22 23 25 24 23 23 23 24 24 25 25 25 24 24 23 22 22 22 21 21 21 21 21 21 21 21 21 22 22 22
18 19 19 20 22 22 21 20 21 21 22 22 22 23 23 23 22 22 21 21 22 21 22 21 22 22 22 22 22 23 23 23 22
16 17 17 18 20 20 19 19 18 18 20 21 22 22 22 22 22 22 22 22 22 22 22 22 22 22 22 22 22 22 23 23 22
16 15 16 17 18 18 19 18 18 17 18 19 21 22 23 23 23 24 23 23 23 23 23 22 22 21 21 21 22 22 23 23 23

GFSFLT1_850_temp_033.txt.gz
Temp
26 28 28 27 26 25 25 25 24 23 23 22 22 22 22 21 20 20 20 20 21 21 21 21 21 21 20 20 20 20 20 20 20
28 27 28 27 26 26 25 25 25 23 23 23 22 22 22 22 21 20 21 21 21 21 21 21 21 21 21 21 21 20 21 21 20
32 29 29 28 27 26 26 26 25 24 23 23 23 23 22 22 23 22 22 22 21 21 21 21 21 21 22 21 21 21 20 20 21
34 32 30 28 27 26 27 26 25 25 24 23 23 23 23 23 23 23 21 22 22 21 21 21 21 22 21 22 22 21 21 21 20
34 33 30 28 28 27 26 26 25 26 25 24 24 24 23 22 23 23 22 22 23 22 22 21 22 22 22 21 21 21 21 22 21
35 33 31 29 28 27 26 26 26 26 26 25 25 24 23 23 22 22 23 23 23 23 23 23 22 21 22 22 21 21 21 21 22
35 34 31 30 29 28 27 27 26 26 26 25 25 24 24 24 23 23 23 24 24 24 24 23 23 22 21 21 21 21 21 21 22
33 34 33 31 30 29 28 28 27 27 26 26 25 25 24 25 25 24 24 24 24 25 24 23 23 23 23 22 21 21 22 22 22
31 31 32 31 30 30 29 29 29 28 27 27 26 26 27 25 25 24 24 24 24 24 25 25 24 24 23 23 22 22 22 22 22
31 31 31 31 31 31 29 28 29 28 28 27 27 26 26 26 26 25 25 25 24 24 24 24 24 24 24 23 24 23 22 22 22
31 31 30 30 31 31 30 30 30 30 29 28 27 27 26 26 25 25 25 25 25 24 24 24 24 25 24 23 24 24 23 22 21
26 27 28 29 29 29 30 31 30 30 29 29 28 28 27 27 27 26 26 25 25 25 24 23 23 23 23 23 23 22 22 21 21
24 25 26 28 29 28 28 29 30 31 30 29 29 28 28 28 27 27 27 26 26 25 25 24 24 23 23 23 22 21 21 20 20
23 24 25 26 27 27 27 28 28 29 30 30 30 29 29 28 28 28 27 27 26 25 24 24 23 22 22 21 22 21 20 20 20
20 23 24 24 25 26 27 27 28 28 29 28 28 29 29 29 29 28 27 27 26 25 24 23 22 22 21 21 21 21 20 20 20
18 19 22 23 24 24 24 26 26 27 27 27 27 28 28 28 27 27 26 26 25 24 23 22 22 21 21 21 21 21 21 21 21
18 18 20 21 22 21 22 23 24 25 26 27 26 26 26 27 26 26 25 24 23 23 22 22 21 21 21 21 22 21 21 21 21
18 19 20 20 19 19 20 21 22 22 23 23 23 24 24 24 25 25 24 23 22 22 22 22 22 22 22 22 21 21 21 21 21
16 18 18 20 19 18 18 19 20 20 21 21 21 22 22 23 23 23 22 22 22 21 21 21 21 22 21 21 21 21 21 21 21
16 17 17 16 17 17 18 18 19 18 18 19 20 21 21 22 22 22 22 22 21 21 20 20 20 20 20 20 20 21 21 21 22

GFSFLT1_850_temp_036.txt.gz
Temp
24 24 24 25 24 25 24 24 24 24 23 23 23 22 22 21 21 21 20 20 20 20 20 20 20 20 20 20 20 19 20 19 19
25 25 24 25 25 24 24 24 25 24 24 23 23 23 22 21 21 21 21 21 20 20 20 20 20 20 20 20 20 20 20 20 19
25 24 25 25 25 24 24 25 25 25 24 24 23 23 22 22 21 21 21 21 21 21 21 20 20 21 20 20 20 20 20 20 20
26 25 26 25 25 25 25 24 24 25 24 24 23 23 23 23 22 21 21 21 22 21 21 21 20 20 21 21 21 21 20 20 20
26 26 26 25 26 25 24 24 24 24 25 24 24 24 24 23 23 22 21 21 22 22 22 21 20 20 21 21 21 21 21 21 21
27 27 26 26 26 25 25 24 24 24 25 25 25 24 24 23 23 22 22 22 23 22 22 21 20 20 21 21 21 21 21 21 21
30 29 28 27 26 26 26 24 24 25 24 25 25 24 24 24 23 23 23 23 23 23 23 22 22 21 21 21 21 21 21 21 21
29 29 28 27 26 26 26 24 25 24 25 26 26 25 25 25 24 24 24 24 24 23 23 24 23 22 21 21 21 21 21 21 21
27 28 28 28 27 26 27 26 26 25 25 27 26 27 26 26 25 25 25 25 25 25 24 24 24 23 23 23 22 22 21 21 21
27 28 28 27 27 28 30 27 27 26 27 27 27 27 27 27 26 26 26 26 26 25 26 25 25 24 24 24 23 23 22 22 22
27 27 28 28 28 27 27 26 26 26 25 27 28 27 28 27 26 26 26 25 25 25 25 25 25 25 25 25 24 24 23 22 22
24 27 28 28 29 28 28 27 27 27 27 27 27 27 28 28 27 27 26 26 26 25 25 25 25 25 25 24 24 23 23 22 21
23 24 26 27 28 28 29 29 28 28 28 28 28 28 28 27 27 27 27 27 26 26 26 26 25 25 25 24 24 23 22 21 20
21 23 24 26 27 28 27 27 28 28 28 28 29 29 29 28 28 27 27 27 26 26 25 25 25 25 24 24 23 23 22 21 20
20 21 23 24 26 26 27 27 27 27 27 26 26 28 29 28 28 27 27 26 26 26 25 25 25 24 23 23 22 22 22 21 20
18 19 19 20 21 23 24 25 25 26 26 26 26 27 27 27 27 27 27 27 26 25 25 24 23 23 23 22 22 22 21 21 21
17 18 19 19 20 21 21 21 22 23 23 24 26 27 27 27 27 27 27 27 26 26 25 24 23 22 22 22 22 22 21 21 20
16 18 19 19 19 20 20 21 21 21 21 21 22 23 25 26 27 27 26 25 25 24 24 23 22 22 22 22 22 21 21 21 21
16 17 18 18 19 19 19 20 21 21 21 21 21 21 22 22 23 24 24 24 23 23 22 21 21 22 21 21 21 21 21 21 21
15 16 17 18 17 18 18 18 19 19 18 19 20 20 21 21 21 22 22 22 22 22 21 21 21 21 21 21 21 20 20 20 20

GFSFLT1_850_temp_042.txt.gz
Temp
22 21 20 21 21 21 21 21 21 22 22 22 22 21 21 21 21 21 21 20 21 21 21 21 20 19 19 19 19 19 18 19 19
23 22 22 21 21 21 21 21 22 22 23 23 23 22 22 22 22 21 21 21 20 21 21 21 20 20 19 19 19 19 19 19 19
23 23 22 22 22 22 22 22 22 22 23 23 23 23 22 22 22 22 22 21 21 20 20 20 20 20 20 19 19 19 19 19 19
24 24 23 23 23 22 23 22 22 23 22 23 23 23 23 23 22 22 22 22 21 21 20 20 21 20 20 20 19 19 19 19 19
26 25 25 24 24 23 23 23 23 23 23 23 23 24 24 23 23 23 22 22 22 21 21 21 21 20 20 20 20 20 20 19 19
27 27 25 24 24 23 23 23 23 23 23 23 24 24 24 23 23 23 23 22 22 22 21 21 21 20 21 20 20 20 20 20 20
26 26 25 25 24 24 24 24 24 24 23 24 23 23 23 23 23 24 23 23 23 22 22 21 21 21 21 21 21 21 20 20 20
28 28 27 26 25 24 23 23 23 24 24 24 23 23 23 23 23 23 24 23 23 23 22 22 22 21 22 21 21 21 21 21 21
19 22 26 28 26 25 23 23 25 26 25 24 24 23 23 23 23 23 24 24 23 23 23 22 22 22 22 22 22 22 22 22 22
16 20 23 25 26 25 25 25 25 27 26 24 24 24 24 24 24 24 24 24 24 23 23 23 22 22 23 23 23 23 23 23 22
15 19 24 25 25 27 26 27 25 25 25 25 25 25 25 24 24 24 24 24 24 24 23 23 23 23 23 23 24 24 24 23 22
15 17 24 25 25 26 25 25 25 25 26 25 25 26 26 26 26 25 25 24 24 24 24 24 24 24 24 24 24 24 24 23 22
16 18 23 26 25 25 24 24 24 25 26 27 26 28 27 26 26 26 26 26 25 25 24 24 23 23 24 24 24 24 23 22 21
16 17 22 25 25 25 25 25 25 25 25 28 27 26 26 26 26 26 26 25 25 24 24 24 24 24 24 24 24 24 23 23 22
16 16 19 22 25 25 25 25 25 25 25 25 26 26 26 26 26 26 25 25 25 25 24 24 23 23 24 24 24 24 24 23 22
15 17 17 18 20 23 23 24 24 25 25 25 26 25 25 25 25 25 25 25 25 24 24 24 24 24 24 24 24 24 23 23 22
15 15 16 17 18 19 19 21 22 22 22 23 24 24 24 24 25 24 24 24 24 24 24 24 24 25 24 24 24 23 22 22 21
15 16 16 16 17 17 18 19 20 21 22 22 24 24 24 24 23 23 23 23 23 23 23 24 24 24 23 23 23 22 21 21 21
15 16 16 16 16 17 17 18 19 21 22 23 23 23 24 24 24 25 25 24 24 24 24 24 22 22 21 22 21 20 20 21 21
14 15 16 16 15 16 16 17 17 18 20 21 23 24 23 23 23 24 24 24 23 23 22 22 21 21 20 20 20 20 20 21 20

GFSFLT1_850_temp_045.txt.gz
Temp
23 22 21 21 20 20 19 20 20 20 20 20 20 20 21 21 21 20 20 20 20 20 20 20 20 20 20 20 19 19 19 19 18
24 23 22 22 21 20 20 21 22 21 21 21 21 21 21 21 21 21 21 21 21 20 20 20 20 20 20 20 19 19 19 19 19
25 24 23 22 22 21 21 23 23 23 22 23 22 22 22 22 22 22 21 21 21 21 20 20 21 20 20 20 19 19 19 19 19
27 25 24 23 22 22 23 22 22 24 23 23 23 23 22 22 22 22 22 22 22 21 21 20 21 20 20 20 20 20 19 19 19
27 26 25 24 23 22 22 21 22 23 24 23 24 23 23 23 23 23 22 22 22 22 21 21 21 20 21 20 20 20 20 19 19
26 25 25 24 24 23 22 21 22 23 24 24 24 24 23 23 23 23 23 23 22 22 22 21 21 21 21 21 21 20 20 20 20
25 24 24 24 23 23 22 21 21 22 23 23 24 24 24 24 23 23 24 23 23 23 22 22 21 21 21 21 21 21 21 21 20
24 24 24 24 24 24 23 22 21 21 21 23 24 24 24 25 24 24 24 24 23 23 23 22 22 21 21 21 21 22 22 22 21
22 22 23 23 23 24 24 23 23 24 22 23 23 24 25 24 24 24 24 24 24 23 23 23 22 22 21 22 22 22 23 23 22
18 19 19 20 22 23 25 25 24 24 25 23 24 25 25 25 24 24 24 24 24 24 23 23 23 22 22 22 22 23 23 23 22
16 17 18 19 22 23 24 25 23 23 22 23 24 25 25 25 25 24 24 23 24 24 24 23 23 23 23 22 22 23 23 23 22
14 15 16 17 20 26 24 23 24 23 22 23 24 25 25 26 25 25 24 24 24 24 23 23 23 23 23 23 23 24 24 23 22
15 15 17 18 24 24 23 23 23 23 23 24 26 26 26 26 26 26 25 25 25 24 24 24 24 24 24 24 24 24 24 23 22
15 15 16 20 22 23 23 22 23 23 22 26 27 24 25 25 26 26 26 26 25 25 24 24 24 24 24 24 24 24 24 23 22
14 15 16 18 20 22 24 24 25 24 24 25 24 25 25 26 25 25 25 25 25 24 24 24 24 24 24 24 24 24 24 23 23
14 15 15 16 17 18 20 22 23 23 24 24 24 24 25 25 25 25 24 25 24 23 24 23 23 23 23 24 24 24 24 23 23
14 15 15 15 16 17 19 20 20 21 22 23 23 24 25 25 25 25 24 24 23 23 23 23 22 21 21 22 24 24 24 23 23
13 14 15 15 15 16 17 18 19 20 21 21 22 22 24 24 24 24 24 22 21 22 22 22 22 21 23 24 23 24 23 23 22
12 14 14 15 15 16 16 17 18 18 19 20 20 19 20 21 21 23 22 23 23 23 23 23 21 22 21 21 22 22 22 22 21
11 12 14 14 15 15 15 16 17 18 18 19 20 20 21 21 21 19 23 22 23 22 22 22 21 20 20 21 21 21 21 21 21